Location: Dover
(48.8500°N, 53.9833°W)
Time: 16:52:46
(UTC+00:00)

Cosmos 1300 Rocket - Pass Details

Date: 14 November 2025
Orbit: 594 x 620 km, 82.5° (Epoch: 12 December)

Event Time Altitude Azimuth Distance (km) Brightness Sun altitude
Rises 21:23:04 0° 198° (SSW) 2,883 7.4 -14.2°
Reaches altitude 10° 21:25:19 10° 203° (SSW) 1,980 6.6 -14.6°
Maximum altitude 21:29:39 58° 282° (WNW) 721 4.2 -15.3°
Drops below altitude 10° 21:34:00 10° 3° (N) 1,985 6.0 -16.0°
Sets 21:36:15 0° 7° (N) 2,890 6.8 -16.3°
